Time,TemperatureF,DewpointF,PressureIn,WindDirection,WindDirectionDegrees,WindSpeedMPH,WindSpeedGustMPH,Humidity,HourlyPrecipIn,Conditions,Clouds,dailyrainin,SoftwareType,DateUTC
2013-11-29 00:01:00,30.4,19.6,30.53,NW,315,0.0,0.0,64,0.00,,,0.00,meteobridge,2013-11-29 05:01:00,
2013-11-29 00:02:00,30.4,19.6,30.53,NW,315,0.0,0.0,64,0.00,,,0.00,meteobridge,2013-11-29 05:02:00,
2013-11-29 00:03:00,30.4,19.6,30.53,NW,315,0.0,0.0,64,0.00,,,0.00,meteobridge,2013-11-29 05:03:00,
2013-11-29 00:07:00,30.4,19.6,30.53,NW,315,0.9,0.9,64,0.00,,,0.00,meteobridge,2013-11-29 05:07:00,
2013-11-29 00:12:00,30.4,19.2,30.53,NW,315,0.0,0.0,63,0.00,,,0.00,meteobridge,2013-11-29 05:12:00,
2013-11-29 00:17:00,30.6,19.8,30.53,NW,315,0.9,0.9,64,0.00,,,0.00,meteobridge,2013-11-29 05:17:00,
2013-11-29 00:22:00,30.6,19.8,30.53,NW,315,0.0,0.9,64,0.00,,,0.00,meteobridge,2013-11-29 05:22:00,
2013-11-29 00:27:00,30.6,19.8,30.53,NW,315,0.9,2.0,64,0.00,,,0.00,meteobridge,2013-11-29 05:27:00,
2013-11-29 00:32:00,30.6,19.8,30.53,NW,315,0.0,0.9,64,0.00,,,0.00,meteobridge,2013-11-29 05:32:00,
2013-11-29 00:37:00,30.6,19.8,30.53,NW,315,0.9,0.9,64,0.00,,,0.00,meteobridge,2013-11-29 05:37:00,
2013-11-29 00:42:00,30.6,19.8,30.53,NW,315,0.0,0.0,64,0.00,,,0.00,meteobridge,2013-11-29 05:42:00,
2013-11-29 00:48:00,30.6,20.1,30.53,NW,315,0.0,0.9,65,0.00,,,0.00,meteobridge,2013-11-29 05:48:00,
2013-11-29 00:53:00,30.6,20.5,30.53,NW,315,0.0,0.9,66,0.00,,,0.00,meteobridge,2013-11-29 05:53:00,
2013-11-29 00:58:00,30.6,20.5,30.53,NW,315,0.0,0.0,66,0.00,,,0.00,meteobridge,2013-11-29 05:58:00,
2013-11-29 01:03:00,30.6,20.8,30.53,NW,315,0.0,0.0,67,0.00,,,0.00,meteobridge,2013-11-29 06:03:00,
2013-11-29 01:08:00,30.6,20.8,30.53,NW,315,0.0,0.0,67,0.00,,,0.00,meteobridge,2013-11-29 06:08:00,
2013-11-29 01:13:00,30.4,20.7,30.53,NW,315,0.0,0.9,67,0.00,,,0.00,meteobridge,2013-11-29 06:13:00,
2013-11-29 01:19:00,30.4,21.0,30.53,NW,315,0.0,0.0,68,0.00,,,0.00,meteobridge,2013-11-29 06:19:00,
2013-11-29 01:24:00,30.4,20.7,30.53,NW,315,0.0,0.0,67,0.00,,,0.00,meteobridge,2013-11-29 06:24:00,
2013-11-29 01:29:00,30.6,20.8,30.53,NW,315,0.0,0.0,67,0.00,,,0.00,meteobridge,2013-11-29 06:29:00,
2013-11-29 01:34:00,30.4,20.7,30.53,NW,315,0.0,0.9,67,0.00,,,0.00,meteobridge,2013-11-29 06:34:00,
2013-11-29 01:39:00,30.4,20.7,30.53,NW,315,0.0,0.0,67,0.00,,,0.00,meteobridge,2013-11-29 06:39:00,
2013-11-29 01:45:00,30.6,20.8,30.53,NW,315,0.0,0.9,67,0.00,,,0.00,meteobridge,2013-11-29 06:45:00,
2013-11-29 01:50:00,30.6,20.8,30.53,NW,315,0.0,0.0,67,0.00,,,0.00,meteobridge,2013-11-29 06:50:00,
2013-11-29 01:55:00,30.6,20.5,30.54,NW,315,0.0,0.0,66,0.00,,,0.00,meteobridge,2013-11-29 06:55:00,
2013-11-29 02:00:00,30.6,20.8,30.54,NW,315,0.0,0.0,67,0.00,,,0.00,meteobridge,2013-11-29 07:00:00,
2013-11-29 02:05:00,30.6,20.5,30.54,NW,315,0.0,0.0,66,0.00,,,0.00,meteobridge,2013-11-29 07:05:00,
2013-11-29 02:10:00,30.6,20.5,30.54,NW,315,0.0,0.0,66,0.00,,,0.00,meteobridge,2013-11-29 07:10:00,
2013-11-29 02:15:00,30.6,20.8,30.53,NW,315,0.0,0.9,67,0.00,,,0.00,meteobridge,2013-11-29 07:15:00,
2013-11-29 02:21:00,30.6,20.8,30.54,NW,315,0.0,0.0,67,0.00,,,0.00,meteobridge,2013-11-29 07:21:00,
2013-11-29 02:26:00,30.6,20.8,30.54,NW,315,0.0,0.0,67,0.00,,,0.00,meteobridge,2013-11-29 07:26:00,
2013-11-29 02:30:00,30.6,21.2,30.54,NW,315,0.0,0.0,68,0.00,,,0.00,meteobridge,2013-11-29 07:30:00,
2013-11-29 02:36:00,30.6,21.6,30.54,NW,315,0.0,0.0,69,0.00,,,0.00,meteobridge,2013-11-29 07:36:00,
2013-11-29 02:41:00,30.4,21.0,30.54,NW,315,0.0,0.0,68,0.00,,,0.00,meteobridge,2013-11-29 07:41:00,
2013-11-29 02:46:00,30.4,21.4,30.54,NW,315,0.9,0.9,69,0.00,,,0.00,meteobridge,2013-11-29 07:46:00,
2013-11-29 02:51:00,30.4,21.0,30.54,NW,315,0.0,0.0,68,0.00,,,0.00,meteobridge,2013-11-29 07:51:00,
2013-11-29 02:57:00,30.4,21.4,30.54,NW,315,0.9,0.9,69,0.00,,,0.00,meteobridge,2013-11-29 07:57:00,
2013-11-29 03:02:00,30.4,21.4,30.54,NW,315,0.0,2.0,69,0.00,,,0.00,meteobridge,2013-11-29 08:02:00,
2013-11-29 03:07:00,30.4,21.4,30.54,NW,315,0.0,0.0,69,0.00,,,0.00,meteobridge,2013-11-29 08:07:00,
2013-11-29 03:12:00,30.2,21.2,30.54,NW,315,2.0,2.0,69,0.00,,,0.00,meteobridge,2013-11-29 08:12:00,
2013-11-29 03:17:00,30.0,21.0,30.54,NW,315,0.0,0.9,69,0.00,,,0.00,meteobridge,2013-11-29 08:17:00,
2013-11-29 03:22:00,30.0,21.4,30.54,NW,315,0.0,0.0,70,0.00,,,0.00,meteobridge,2013-11-29 08:22:00,
2013-11-29 03:28:00,29.8,21.2,30.54,NW,315,0.0,0.9,70,0.00,,,0.00,meteobridge,2013-11-29 08:28:00,
2013-11-29 03:33:00,29.8,21.6,30.54,NW,315,0.0,0.0,71,0.00,,,0.00,meteobridge,2013-11-29 08:33:00,
2013-11-29 03:38:00,29.7,21.4,30.54,NW,315,0.0,0.9,71,0.00,,,0.00,meteobridge,2013-11-29 08:38:00,
2013-11-29 03:43:00,29.7,21.7,30.54,NW,315,0.9,0.9,72,0.00,,,0.00,meteobridge,2013-11-29 08:43:00,
2013-11-29 03:48:00,29.7,21.7,30.54,NW,315,0.0,0.9,72,0.00,,,0.00,meteobridge,2013-11-29 08:48:00,
2013-11-29 03:53:00,29.5,21.9,30.54,NW,315,0.0,0.0,73,0.00,,,0.00,meteobridge,2013-11-29 08:53:00,
2013-11-29 03:58:00,29.3,21.7,30.54,NW,315,0.0,0.0,73,0.00,,,0.00,meteobridge,2013-11-29 08:58:00,
2013-11-29 04:04:00,29.1,21.9,30.54,NW,315,0.0,0.0,74,0.00,,,0.00,meteobridge,2013-11-29 09:04:00,
2013-11-29 04:09:00,28.9,22.1,30.54,NW,315,0.0,0.0,75,0.00,,,0.00,meteobridge,2013-11-29 09:09:00,
2013-11-29 04:14:00,28.9,22.1,30.54,NW,315,0.0,0.0,75,0.00,,,0.00,meteobridge,2013-11-29 09:14:00,
2013-11-29 04:19:00,28.8,22.1,30.54,NW,315,0.0,0.0,76,0.00,,,0.00,meteobridge,2013-11-29 09:19:00,
2013-11-29 04:24:00,28.8,22.1,30.55,NW,315,0.0,0.0,76,0.00,,,0.00,meteobridge,2013-11-29 09:24:00,
2013-11-29 04:30:00,28.8,22.1,30.54,NW,315,0.0,0.0,76,0.00,,,0.00,meteobridge,2013-11-29 09:30:00,
2013-11-29 04:35:00,28.8,22.5,30.54,NW,315,0.0,0.0,77,0.00,,,0.00,meteobridge,2013-11-29 09:35:00,
2013-11-29 04:40:00,28.8,22.5,30.54,NW,315,0.0,0.0,77,0.00,,,0.00,meteobridge,2013-11-29 09:40:00,
2013-11-29 04:45:00,28.6,22.3,30.54,NW,315,0.0,0.0,77,0.00,,,0.00,meteobridge,2013-11-29 09:45:00,
2013-11-29 04:50:00,28.6,22.3,30.55,NW,315,0.0,0.0,77,0.00,,,0.00,meteobridge,2013-11-29 09:50:00,
2013-11-29 04:55:00,28.6,22.6,30.55,NW,315,0.0,0.0,78,0.00,,,0.00,meteobridge,2013-11-29 09:55:00,
2013-11-29 05:00:00,28.6,22.6,30.55,NW,315,0.0,0.0,78,0.00,,,0.00,meteobridge,2013-11-29 10:00:00,
2013-11-29 05:05:00,28.6,22.8,30.55,NW,315,0.0,0.0,79,0.00,,,0.00,meteobridge,2013-11-29 10:05:00,
2013-11-29 05:10:00,28.8,23.0,30.55,NW,315,0.0,0.0,79,0.00,,,0.00,meteobridge,2013-11-29 10:10:00,
2013-11-29 05:15:00,28.8,23.0,30.55,NW,315,0.0,0.0,79,0.00,,,0.00,meteobridge,2013-11-29 10:15:00,
2013-11-29 05:21:00,28.6,22.8,30.55,NW,315,0.0,0.0,79,0.00,,,0.00,meteobridge,2013-11-29 10:21:00,
2013-11-29 05:26:00,28.8,23.0,30.56,NW,315,0.0,0.0,79,0.00,,,0.00,meteobridge,2013-11-29 10:26:00,
2013-11-29 05:32:00,28.8,23.0,30.56,NW,315,0.0,0.0,79,0.00,,,0.00,meteobridge,2013-11-29 10:32:00,
2013-11-29 05:37:00,28.8,23.0,30.56,NW,315,0.0,0.0,79,0.00,,,0.00,meteobridge,2013-11-29 10:37:00,
2013-11-29 05:42:00,28.9,23.2,30.56,NW,315,0.9,0.9,79,0.00,,,0.00,meteobridge,2013-11-29 10:42:00,
2013-11-29 05:47:00,28.9,23.0,30.56,NW,315,0.0,0.0,78,0.00,,,0.00,meteobridge,2013-11-29 10:47:00,
2013-11-29 05:52:00,28.9,23.0,30.57,NW,315,0.0,0.0,78,0.00,,,0.00,meteobridge,2013-11-29 10:52:00,
2013-11-29 05:57:00,28.9,23.0,30.57,NW,315,0.0,0.0,78,0.00,,,0.00,meteobridge,2013-11-29 10:57:00,
2013-11-29 06:02:00,28.8,22.8,30.57,NW,315,0.0,0.0,78,0.00,,,0.00,meteobridge,2013-11-29 11:02:00,
2013-11-29 06:08:00,28.8,22.8,30.57,NW,315,0.0,0.0,78,0.00,,,0.00,meteobridge,2013-11-29 11:08:00,
2013-11-29 06:13:00,28.6,22.8,30.57,NW,315,0.0,0.0,79,0.00,,,0.00,meteobridge,2013-11-29 11:13:00,
2013-11-29 06:18:00,28.4,22.6,30.58,NW,315,0.0,0.0,79,0.00,,,0.00,meteobridge,2013-11-29 11:18:00,
2013-11-29 06:23:00,28.2,22.6,30.58,NW,315,0.0,0.0,79,0.00,,,0.00,meteobridge,2013-11-29 11:23:00,
2013-11-29 06:28:00,28.0,22.5,30.58,NW,315,0.0,0.0,79,0.00,,,0.00,meteobridge,2013-11-29 11:28:00,
2013-11-29 06:33:00,27.9,22.5,30.58,NW,315,0.0,0.0,80,0.00,,,0.00,meteobridge,2013-11-29 11:33:00,
2013-11-29 06:39:00,27.9,22.5,30.58,NW,315,0.0,0.0,80,0.00,,,0.00,meteobridge,2013-11-29 11:39:00,
2013-11-29 06:44:00,27.3,21.9,30.58,NW,315,0.0,0.0,80,0.00,,,0.00,meteobridge,2013-11-29 11:44:00,
2013-11-29 06:49:00,27.1,21.7,30.59,NW,315,0.0,0.0,80,0.00,,,0.00,meteobridge,2013-11-29 11:49:00,
2013-11-29 06:54:00,26.8,21.7,30.59,NW,315,0.0,0.0,81,0.00,,,0.00,meteobridge,2013-11-29 11:54:00,
2013-11-29 06:59:00,26.4,21.4,30.59,NW,315,0.0,0.0,81,0.00,,,0.00,meteobridge,2013-11-29 11:59:00,
2013-11-29 07:04:00,26.2,21.6,30.60,NW,315,0.0,0.0,82,0.00,,,0.00,meteobridge,2013-11-29 12:04:00,
2013-11-29 07:09:00,26.1,21.4,30.60,NW,315,0.0,0.0,82,0.00,,,0.00,meteobridge,2013-11-29 12:09:00,
2013-11-29 07:15:00,25.9,21.4,30.60,NW,315,0.0,0.0,83,0.00,,,0.00,meteobridge,2013-11-29 12:15:00,
2013-11-29 07:20:00,25.7,21.6,30.60,NW,315,0.0,0.0,84,0.00,,,0.00,meteobridge,2013-11-29 12:20:00,
2013-11-29 07:25:00,25.7,21.6,30.60,NW,315,0.0,0.0,84,0.00,,,0.00,meteobridge,2013-11-29 12:25:00,
2013-11-29 07:30:00,25.5,21.6,30.60,NW,315,0.0,0.0,85,0.00,,,0.00,meteobridge,2013-11-29 12:30:00,
2013-11-29 07:35:00,25.5,21.6,30.61,NW,315,0.0,0.0,85,0.00,,,0.00,meteobridge,2013-11-29 12:35:00,
2013-11-29 07:40:00,25.5,21.6,30.61,NW,315,0.0,0.0,85,0.00,,,0.00,meteobridge,2013-11-29 12:40:00,
2013-11-29 07:46:00,25.9,22.3,30.61,NW,315,0.0,0.0,86,0.00,,,0.00,meteobridge,2013-11-29 12:46:00,
2013-11-29 07:51:00,26.1,22.6,30.61,NW,315,0.0,0.0,87,0.00,,,0.00,meteobridge,2013-11-29 12:51:00,
2013-11-29 07:56:00,26.2,22.8,30.61,NW,315,0.0,0.9,87,0.00,,,0.00,meteobridge,2013-11-29 12:56:00,
2013-11-29 08:01:00,26.8,23.2,30.62,NW,315,0.0,0.0,86,0.00,,,0.00,meteobridge,2013-11-29 13:01:00,
2013-11-29 08:06:00,27.0,23.4,30.62,NW,315,0.0,2.9,86,0.00,,,0.00,meteobridge,2013-11-29 13:06:00,
2013-11-29 08:11:00,27.5,23.5,30.62,NW,315,0.0,2.9,85,0.00,,,0.00,meteobridge,2013-11-29 13:11:00,
2013-11-29 08:16:00,28.0,23.5,30.62,NW,315,0.0,2.0,83,0.00,,,0.00,meteobridge,2013-11-29 13:16:00,
2013-11-29 08:21:00,28.6,23.7,30.62,NW,315,0.0,2.0,82,0.00,,,0.00,meteobridge,2013-11-29 13:21:00,
2013-11-29 08:27:00,29.1,24.1,30.62,NW,315,0.9,0.9,81,0.00,,,0.00,meteobridge,2013-11-29 13:27:00,
2013-11-29 08:32:00,29.7,24.3,30.63,NW,315,2.0,2.0,80,0.00,,,0.00,meteobridge,2013-11-29 13:32:00,
2013-11-29 08:37:00,30.4,24.1,30.63,NW,315,0.0,2.9,77,0.00,,,0.00,meteobridge,2013-11-29 13:37:00,
2013-11-29 08:42:00,30.9,24.3,30.63,NW,315,0.9,0.9,76,0.00,,,0.00,meteobridge,2013-11-29 13:42:00,
2013-11-29 08:47:00,31.8,24.4,30.63,NW,315,0.9,2.0,74,0.00,,,0.00,meteobridge,2013-11-29 13:47:00,
2013-11-29 08:52:00,32.5,24.4,30.63,NW,315,2.0,2.9,72,0.00,,,0.00,meteobridge,2013-11-29 13:52:00,
2013-11-29 08:57:00,33.4,24.4,30.63,NNE,23,2.0,4.9,69,0.00,,,0.00,meteobridge,2013-11-29 13:57:00,
2013-11-29 09:02:00,34.3,23.7,30.63,NW,312,4.0,6.0,65,0.00,,,0.00,meteobridge,2013-11-29 14:02:00,
2013-11-29 09:07:00,35.2,23.5,30.63,NW,304,2.9,6.9,62,0.00,,,0.00,meteobridge,2013-11-29 14:07:00,
2013-11-29 09:12:00,35.8,23.2,30.63,NW,313,0.9,6.0,60,0.00,,,0.00,meteobridge,2013-11-29 14:12:00,
2013-11-29 09:18:00,36.3,23.7,30.64,NW,314,6.0,6.0,60,0.00,,,0.00,meteobridge,2013-11-29 14:18:00,
2013-11-29 09:23:00,36.9,23.9,30.64,North,355,8.9,8.9,59,0.00,,,0.00,meteobridge,2013-11-29 14:23:00,
2013-11-29 09:28:00,37.2,23.4,30.64,West,271,4.0,4.9,57,0.00,,,0.00,meteobridge,2013-11-29 14:28:00,
2013-11-29 09:33:00,37.9,23.7,30.64,NNW,342,2.0,6.0,56,0.00,,,0.00,meteobridge,2013-11-29 14:33:00,
2013-11-29 09:38:00,38.1,23.4,30.64,NW,306,6.0,6.9,55,0.00,,,0.00,meteobridge,2013-11-29 14:38:00,
2013-11-29 09:43:00,38.5,23.4,30.64,WNW,287,2.9,8.9,54,0.00,,,0.00,meteobridge,2013-11-29 14:43:00,
2013-11-29 09:48:00,38.7,23.0,30.64,NNW,334,2.9,6.9,53,0.00,,,0.00,meteobridge,2013-11-29 14:48:00,
2013-11-29 09:53:00,38.5,22.5,30.63,NNW,329,6.9,8.1,52,0.00,,,0.00,meteobridge,2013-11-29 14:53:00,
2013-11-29 09:58:00,38.8,22.3,30.64,NW,317,4.9,6.0,51,0.00,,,0.00,meteobridge,2013-11-29 14:58:00,
2013-11-29 10:03:00,39.0,22.5,30.64,NW,314,0.9,4.9,51,0.00,,,0.00,meteobridge,2013-11-29 15:03:00,
2013-11-29 10:08:00,39.6,22.5,30.64,NNW,327,2.0,6.0,50,0.00,,,0.00,meteobridge,2013-11-29 15:08:00,
2013-11-29 10:13:00,39.9,22.8,30.64,NNW,332,6.0,6.0,50,0.00,,,0.00,meteobridge,2013-11-29 15:13:00,
2013-11-29 10:18:00,39.7,21.7,30.64,WNW,297,2.9,8.1,48,0.00,,,0.00,meteobridge,2013-11-29 15:18:00,
2013-11-29 10:23:00,39.9,22.8,30.64,NW,313,2.0,4.0,50,0.00,,,0.00,meteobridge,2013-11-29 15:23:00,
2013-11-29 10:28:00,40.5,22.3,30.64,NW,319,6.9,8.1,48,0.00,,,0.00,meteobridge,2013-11-29 15:28:00,
2013-11-29 10:33:00,40.8,21.6,30.64,NNW,337,2.9,6.9,46,0.00,,,0.00,meteobridge,2013-11-29 15:33:00,
2013-11-29 10:38:00,40.8,21.6,30.64,NW,323,2.0,8.1,46,0.00,,,0.00,meteobridge,2013-11-29 15:38:00,
2013-11-29 10:43:00,40.8,21.6,30.64,West,259,4.9,8.1,46,0.00,,,0.00,meteobridge,2013-11-29 15:43:00,
2013-11-29 10:48:00,40.8,21.2,30.63,NW,312,4.9,8.1,45,0.00,,,0.00,meteobridge,2013-11-29 15:48:00,
2013-11-29 10:53:00,41.2,21.4,30.63,WNW,285,4.0,6.0,45,0.00,,,0.00,meteobridge,2013-11-29 15:53:00,
2013-11-29 10:58:00,41.4,21.6,30.63,WNW,288,4.9,6.9,45,0.00,,,0.00,meteobridge,2013-11-29 15:58:00,
2013-11-29 11:03:00,41.5,21.7,30.63,NW,304,0.9,8.9,45,0.00,,,0.00,meteobridge,2013-11-29 16:03:00,
2013-11-29 11:09:00,41.7,21.4,30.63,NNW,329,4.0,6.9,44,0.00,,,0.00,meteobridge,2013-11-29 16:09:00,
2013-11-29 11:14:00,41.7,21.4,30.63,WNW,290,0.9,8.1,44,0.00,,,0.00,meteobridge,2013-11-29 16:14:00,
2013-11-29 11:19:00,42.1,21.7,30.63,NNW,330,2.0,4.9,44,0.00,,,0.00,meteobridge,2013-11-29 16:19:00,
2013-11-29 11:24:00,42.1,21.2,30.63,NW,321,4.9,8.9,43,0.00,,,0.00,meteobridge,2013-11-29 16:24:00,
2013-11-29 11:29:00,41.4,20.5,30.63,North,355,6.0,8.9,43,0.00,,,0.00,meteobridge,2013-11-29 16:29:00,
2013-11-29 11:34:00,40.8,21.2,30.62,NNW,339,4.9,8.9,45,0.00,,,0.00,meteobridge,2013-11-29 16:34:00,
2013-11-29 11:39:00,41.2,20.8,30.62,NNW,340,4.0,11.0,44,0.00,,,0.00,meteobridge,2013-11-29 16:39:00,
2013-11-29 11:44:00,41.2,20.8,30.62,NNW,348,12.1,12.1,44,0.00,,,0.00,meteobridge,2013-11-29 16:44:00,
2013-11-29 11:49:00,40.6,21.0,30.62,NNW,342,4.0,8.1,45,0.00,,,0.00,meteobridge,2013-11-29 16:49:00,
2013-11-29 11:54:00,40.8,21.2,30.62,North,355,6.9,13.0,45,0.00,,,0.00,meteobridge,2013-11-29 16:54:00,
2013-11-29 11:59:00,40.6,21.0,30.62,NNE,13,2.9,8.1,45,0.00,,,0.00,meteobridge,2013-11-29 16:59:00,
2013-11-29 12:04:00,40.6,21.9,30.61,North,5,4.0,8.9,47,0.00,,,0.00,meteobridge,2013-11-29 17:04:00,
2013-11-29 12:09:00,41.4,21.6,30.61,NNE,32,2.0,8.1,45,0.00,,,0.00,meteobridge,2013-11-29 17:09:00,
2013-11-29 12:14:00,41.2,22.5,30.61,North,0,4.0,8.1,47,0.00,,,0.00,meteobridge,2013-11-29 17:14:00,
2013-11-29 12:19:00,41.5,21.7,30.61,NNW,333,4.0,11.0,45,0.00,,,0.00,meteobridge,2013-11-29 17:19:00,
2013-11-29 12:24:00,41.5,22.3,30.62,WNW,295,2.9,11.0,46,0.00,,,0.00,meteobridge,2013-11-29 17:24:00,
2013-11-29 12:29:00,41.7,21.9,30.61,NNW,336,4.0,6.0,45,0.00,,,0.00,meteobridge,2013-11-29 17:29:00,
2013-11-29 12:34:00,42.1,22.3,30.62,NW,325,6.0,10.1,45,0.00,,,0.00,meteobridge,2013-11-29 17:34:00,
2013-11-29 12:39:00,42.1,21.7,30.62,WNW,286,8.1,12.1,44,0.00,,,0.00,meteobridge,2013-11-29 17:39:00,
2013-11-29 12:44:00,42.1,21.7,30.62,NNE,13,2.9,12.1,44,0.00,,,0.00,meteobridge,2013-11-29 17:44:00,
2013-11-29 12:49:00,41.7,21.9,30.61,NNW,348,6.9,11.0,45,0.00,,,0.00,meteobridge,2013-11-29 17:49:00,
2013-11-29 12:54:00,41.5,21.7,30.61,NW,313,2.9,10.1,45,0.00,,,0.00,meteobridge,2013-11-29 17:54:00,
2013-11-29 12:59:00,41.7,22.5,30.61,NE,37,8.9,11.0,46,0.00,,,0.00,meteobridge,2013-11-29 17:59:00,
2013-11-29 13:04:00,41.5,21.7,30.61,NNE,21,10.1,13.0,45,0.00,,,0.00,meteobridge,2013-11-29 18:04:00,
2013-11-29 13:09:00,41.0,21.7,30.61,NE,37,8.1,15.0,46,0.00,,,0.00,meteobridge,2013-11-29 18:09:00,
2013-11-29 13:14:00,40.5,21.7,30.61,NNW,334,4.0,6.9,47,0.00,,,0.00,meteobridge,2013-11-29 18:14:00,
2013-11-29 13:19:00,41.2,22.5,30.61,North,355,8.1,8.9,47,0.00,,,0.00,meteobridge,2013-11-29 18:19:00,
2013-11-29 13:24:00,41.5,22.3,30.62,NNE,15,4.0,11.0,46,0.00,,,0.00,meteobridge,2013-11-29 18:24:00,
2013-11-29 13:29:00,41.5,22.3,30.62,WNW,298,4.9,13.0,46,0.00,,,0.00,meteobridge,2013-11-29 18:29:00,
2013-11-29 13:34:00,42.1,22.8,30.62,NNE,13,2.9,6.0,46,0.00,,,0.00,meteobridge,2013-11-29 18:34:00,
2013-11-29 13:40:00,41.4,22.1,30.62,NNE,13,4.9,15.0,46,0.00,,,0.00,meteobridge,2013-11-29 18:40:00,
2013-11-29 13:45:00,41.0,22.3,30.62,NNW,338,4.0,12.1,47,0.00,,,0.00,meteobridge,2013-11-29 18:45:00,
2013-11-29 13:50:00,41.7,23.5,30.62,NNE,12,4.9,6.0,48,0.00,,,0.00,meteobridge,2013-11-29 18:50:00,
2013-11-29 13:55:00,41.7,23.0,30.61,NW,321,4.0,8.1,47,0.00,,,0.00,meteobridge,2013-11-29 18:55:00,
2013-11-29 14:00:00,42.1,22.3,30.62,North,355,11.0,12.1,45,0.00,,,0.00,meteobridge,2013-11-29 19:00:00,
2013-11-29 14:05:00,41.7,22.5,30.61,NW,309,0.0,8.1,46,0.00,,,0.00,meteobridge,2013-11-29 19:05:00,
2013-11-29 14:10:00,41.9,22.6,30.61,NNE,32,2.0,4.9,46,0.00,,,0.00,meteobridge,2013-11-29 19:10:00,
2013-11-29 14:15:00,42.1,22.3,30.61,NW,316,2.9,8.1,45,0.00,,,0.00,meteobridge,2013-11-29 19:15:00,
2013-11-29 14:20:00,41.9,22.1,30.61,NNE,13,6.0,13.0,45,0.00,,,0.00,meteobridge,2013-11-29 19:20:00,
2013-11-29 14:25:00,41.7,21.9,30.61,NNW,342,13.0,13.0,45,0.00,,,0.00,meteobridge,2013-11-29 19:25:00,
2013-11-29 14:30:00,41.9,22.6,30.62,NW,321,2.0,8.1,46,0.00,,,0.00,meteobridge,2013-11-29 19:30:00,
2013-11-29 14:35:00,42.1,22.8,30.62,WNW,302,8.1,10.1,46,0.00,,,0.00,meteobridge,2013-11-29 19:35:00,
2013-11-29 14:40:00,41.5,22.3,30.62,NE,43,2.9,8.9,46,0.00,,,0.00,meteobridge,2013-11-29 19:40:00,
2013-11-29 14:45:00,41.2,21.9,30.62,North,350,6.9,13.0,46,0.00,,,0.00,meteobridge,2013-11-29 19:45:00,
2013-11-29 14:50:00,41.4,22.1,30.62,NW,325,0.9,12.1,46,0.00,,,0.00,meteobridge,2013-11-29 19:50:00,
2013-11-29 14:55:00,41.5,21.2,30.63,WSW,257,4.0,6.9,44,0.00,,,0.00,meteobridge,2013-11-29 19:55:00,
2013-11-29 15:00:00,41.7,21.4,30.63,North,5,2.0,6.0,44,0.00,,,0.00,meteobridge,2013-11-29 20:00:00,
2013-11-29 15:05:00,41.5,21.7,30.63,NW,318,8.9,10.1,45,0.00,,,0.00,meteobridge,2013-11-29 20:05:00,
2013-11-29 15:10:00,41.5,21.7,30.63,NNE,24,4.0,14.1,45,0.00,,,0.00,meteobridge,2013-11-29 20:10:00,
2013-11-29 15:15:00,41.5,22.3,30.63,NNE,24,2.0,10.1,46,0.00,,,0.00,meteobridge,2013-11-29 20:15:00,
2013-11-29 15:20:00,41.2,21.4,30.63,North,355,8.1,8.9,45,0.00,,,0.00,meteobridge,2013-11-29 20:20:00,
2013-11-29 15:25:00,40.6,21.9,30.64,NNW,338,6.9,8.9,47,0.00,,,0.00,meteobridge,2013-11-29 20:25:00,
2013-11-29 15:30:00,40.5,22.3,30.64,NW,323,2.9,6.9,48,0.00,,,0.00,meteobridge,2013-11-29 20:30:00,
2013-11-29 15:35:00,40.5,22.3,30.64,North,351,6.9,8.9,48,0.00,,,0.00,meteobridge,2013-11-29 20:35:00,
2013-11-29 15:41:00,39.9,22.3,30.65,North,5,2.9,8.1,49,0.00,,,0.00,meteobridge,2013-11-29 20:41:00,
2013-11-29 15:46:00,39.6,22.5,30.65,NNE,24,2.9,16.1,50,0.00,,,0.00,meteobridge,2013-11-29 20:46:00,
2013-11-29 15:51:00,38.8,22.3,30.65,North,0,0.9,6.0,51,0.00,,,0.00,meteobridge,2013-11-29 20:51:00,
2013-11-29 15:56:00,38.5,22.5,30.65,North,355,8.9,8.9,52,0.00,,,0.00,meteobridge,2013-11-29 20:56:00,
2013-11-29 16:01:00,38.1,22.5,30.65,NNE,22,2.9,8.9,53,0.00,,,0.00,meteobridge,2013-11-29 21:01:00,
2013-11-29 16:06:00,37.9,22.3,30.66,NW,313,8.9,10.1,53,0.00,,,0.00,meteobridge,2013-11-29 21:06:00,
2013-11-29 16:11:00,37.8,22.6,30.66,NNE,12,4.0,11.0,54,0.00,,,0.00,meteobridge,2013-11-29 21:11:00,
2013-11-29 16:16:00,37.6,21.9,30.66,NNE,12,0.0,6.0,53,0.00,,,0.00,meteobridge,2013-11-29 21:16:00,
2013-11-29 16:21:00,37.2,21.7,30.66,NNW,346,4.0,6.0,53,0.00,,,0.00,meteobridge,2013-11-29 21:21:00,
2013-11-29 16:26:00,37.0,21.9,30.67,North,0,4.0,8.1,54,0.00,,,0.00,meteobridge,2013-11-29 21:26:00,
2013-11-29 16:31:00,36.9,21.7,30.67,North,350,0.9,4.9,54,0.00,,,0.00,meteobridge,2013-11-29 21:31:00,
2013-11-29 16:36:00,36.7,22.1,30.67,North,11,0.9,4.9,55,0.00,,,0.00,meteobridge,2013-11-29 21:36:00,
2013-11-29 16:41:00,36.3,21.7,30.68,North,11,0.0,2.9,55,0.00,,,0.00,meteobridge,2013-11-29 21:41:00,
2013-11-29 16:46:00,36.1,21.9,30.68,NW,321,2.0,4.9,56,0.00,,,0.00,meteobridge,2013-11-29 21:46:00,
2013-11-29 16:51:00,36.0,21.7,30.68,NNW,342,2.0,2.9,56,0.00,,,0.00,meteobridge,2013-11-29 21:51:00,
2013-11-29 16:56:00,35.8,21.6,30.69,NNW,333,0.0,6.9,56,0.00,,,0.00,meteobridge,2013-11-29 21:56:00,
2013-11-29 17:01:00,35.6,21.9,30.69,NNW,341,2.9,6.0,57,0.00,,,0.00,meteobridge,2013-11-29 22:01:00,
2013-11-29 17:06:00,35.4,23.4,30.69,NNW,344,2.9,6.0,61,0.00,,,0.00,meteobridge,2013-11-29 22:06:00,
2013-11-29 17:12:00,35.4,21.7,30.69,NNW,337,0.9,4.9,57,0.00,,,0.00,meteobridge,2013-11-29 22:12:00,
2013-11-29 17:17:00,35.2,21.9,30.69,NNE,12,2.0,6.0,58,0.00,,,0.00,meteobridge,2013-11-29 22:17:00,
2013-11-29 17:22:00,35.1,22.1,30.69,North,9,2.9,4.9,59,0.00,,,0.00,meteobridge,2013-11-29 22:22:00,
2013-11-29 17:27:00,35.1,22.1,30.69,NNW,336,4.9,4.9,59,0.00,,,0.00,meteobridge,2013-11-29 22:27:00,
2013-11-29 17:32:00,34.9,21.9,30.70,North,355,4.0,6.0,59,0.00,,,0.00,meteobridge,2013-11-29 22:32:00,
2013-11-29 17:37:00,34.7,22.3,30.70,NNW,327,0.9,2.0,60,0.00,,,0.00,meteobridge,2013-11-29 22:37:00,
2013-11-29 17:42:00,34.5,22.1,30.70,North,355,2.0,8.1,60,0.00,,,0.00,meteobridge,2013-11-29 22:42:00,
2013-11-29 17:47:00,34.5,22.1,30.71,NW,322,4.0,6.0,60,0.00,,,0.00,meteobridge,2013-11-29 22:47:00,
2013-11-29 17:52:00,34.3,21.9,30.71,NNW,348,0.9,6.0,60,0.00,,,0.00,meteobridge,2013-11-29 22:52:00,
2013-11-29 17:57:00,34.3,22.3,30.71,NW,321,2.9,4.9,61,0.00,,,0.00,meteobridge,2013-11-29 22:57:00,
2013-11-29 18:02:00,34.2,22.1,30.71,NNW,345,2.9,2.9,61,0.00,,,0.00,meteobridge,2013-11-29 23:02:00,
2013-11-29 18:07:00,34.2,22.5,30.71,NW,307,0.9,2.9,62,0.00,,,0.00,meteobridge,2013-11-29 23:07:00,
2013-11-29 18:12:00,34.0,22.3,30.71,NNW,342,0.0,2.9,62,0.00,,,0.00,meteobridge,2013-11-29 23:12:00,
2013-11-29 18:17:00,33.6,22.5,30.71,NNW,341,2.9,4.0,63,0.00,,,0.00,meteobridge,2013-11-29 23:17:00,
2013-11-29 18:23:00,33.6,22.5,30.72,North,355,2.0,6.0,63,0.00,,,0.00,meteobridge,2013-11-29 23:23:00,
2013-11-29 18:28:00,33.4,22.6,30.72,North,355,0.0,2.9,64,0.00,,,0.00,meteobridge,2013-11-29 23:28:00,
2013-11-29 18:33:00,33.3,22.5,30.72,North,11,0.9,4.9,64,0.00,,,0.00,meteobridge,2013-11-29 23:33:00,
2013-11-29 18:38:00,33.3,22.5,30.72,North,355,2.0,6.0,64,0.00,,,0.00,meteobridge,2013-11-29 23:38:00,
2013-11-29 18:43:00,33.1,22.3,30.72,NNW,346,2.0,4.0,64,0.00,,,0.00,meteobridge,2013-11-29 23:43:00,
2013-11-29 18:48:00,33.1,22.3,30.72,NNE,13,2.9,4.9,64,0.00,,,0.00,meteobridge,2013-11-29 23:48:00,
2013-11-29 18:53:00,32.9,22.1,30.72,North,11,0.9,4.0,64,0.00,,,0.00,meteobridge,2013-11-29 23:53:00,
2013-11-29 18:58:00,32.7,22.3,30.72,North,0,2.0,4.9,65,0.00,,,0.00,meteobridge,2013-11-29 23:58:00,
2013-11-29 19:03:00,32.5,21.7,30.73,NNW,346,2.0,4.9,64,0.00,,,0.00,meteobridge,2013-11-30 00:03:00,
2013-11-29 19:08:00,32.5,21.7,30.73,NW,323,0.9,2.9,64,0.00,,,0.00,meteobridge,2013-11-30 00:08:00,
2013-11-29 19:13:00,32.4,21.6,30.73,North,9,0.9,2.9,64,0.00,,,0.00,meteobridge,2013-11-30 00:13:00,
2013-11-29 19:18:00,32.4,21.2,30.73,NNE,22,0.9,4.9,63,0.00,,,0.00,meteobridge,2013-11-30 00:18:00,
2013-11-29 19:23:00,32.4,20.8,30.73,NW,311,0.9,4.0,62,0.00,,,0.00,meteobridge,2013-11-30 00:23:00,
2013-11-29 19:29:00,32.2,21.0,30.73,NW,313,0.9,2.0,63,0.00,,,0.00,meteobridge,2013-11-30 00:29:00,
2013-11-29 19:34:00,32.2,20.7,30.74,NW,313,0.9,2.0,62,0.00,,,0.00,meteobridge,2013-11-30 00:34:00,
2013-11-29 19:39:00,32.0,20.8,30.74,NW,313,0.0,0.9,63,0.00,,,0.00,meteobridge,2013-11-30 00:39:00,
2013-11-29 19:44:00,31.8,20.7,30.74,NW,313,0.9,2.0,63,0.00,,,0.00,meteobridge,2013-11-30 00:44:00,
2013-11-29 19:49:00,31.6,20.5,30.74,NW,313,0.9,0.9,63,0.00,,,0.00,meteobridge,2013-11-30 00:49:00,
2013-11-29 19:54:00,31.5,20.7,30.74,North,355,0.9,4.9,64,0.00,,,0.00,meteobridge,2013-11-30 00:54:00,
2013-11-29 19:59:00,31.3,20.5,30.74,North,0,0.0,4.9,64,0.00,,,0.00,meteobridge,2013-11-30 00:59:00,
2013-11-29 20:04:00,31.3,20.5,30.74,North,0,2.0,2.9,64,0.00,,,0.00,meteobridge,2013-11-30 01:04:00,
2013-11-29 20:10:00,31.3,20.5,30.74,North,0,2.0,2.0,64,0.00,,,0.00,meteobridge,2013-11-30 01:10:00,
2013-11-29 20:14:00,31.3,20.5,30.74,North,5,0.9,2.0,64,0.00,,,0.00,meteobridge,2013-11-30 01:14:00,
2013-11-29 20:20:00,31.1,20.3,30.74,North,5,0.9,2.0,64,0.00,,,0.00,meteobridge,2013-11-30 01:20:00,
2013-11-29 20:25:00,30.9,20.1,30.75,North,5,0.0,0.0,64,0.00,,,0.00,meteobridge,2013-11-30 01:25:00,
2013-11-29 20:30:00,30.9,20.1,30.75,North,5,0.0,0.9,64,0.00,,,0.00,meteobridge,2013-11-30 01:30:00,
2013-11-29 20:35:00,30.7,20.3,30.75,North,5,0.0,0.0,65,0.00,,,0.00,meteobridge,2013-11-30 01:35:00,
2013-11-29 20:40:00,30.6,20.1,30.75,North,5,0.0,0.0,65,0.00,,,0.00,meteobridge,2013-11-30 01:40:00,
2013-11-29 20:46:00,30.2,20.3,30.75,North,5,0.0,0.9,66,0.00,,,0.00,meteobridge,2013-11-30 01:46:00,
2013-11-29 20:51:00,30.0,20.5,30.75,North,5,0.0,0.9,67,0.00,,,0.00,meteobridge,2013-11-30 01:51:00,
2013-11-29 20:56:00,29.8,20.7,30.75,North,5,0.0,0.0,68,0.00,,,0.00,meteobridge,2013-11-30 01:56:00,
2013-11-29 21:01:00,29.7,20.5,30.76,North,5,0.0,0.0,68,0.00,,,0.00,meteobridge,2013-11-30 02:01:00,
2013-11-29 21:06:00,29.7,20.5,30.76,NW,326,2.0,4.9,68,0.00,,,0.00,meteobridge,2013-11-30 02:06:00,
2013-11-29 21:11:00,29.5,20.7,30.76,NNW,327,0.0,4.0,69,0.00,,,0.00,meteobridge,2013-11-30 02:11:00,
2013-11-29 21:16:00,29.3,20.7,30.76,NNW,334,0.0,0.0,70,0.00,,,0.00,meteobridge,2013-11-30 02:16:00,
2013-11-29 21:21:00,29.1,20.5,30.76,NNW,344,4.0,4.9,70,0.00,,,0.00,meteobridge,2013-11-30 02:21:00,
2013-11-29 21:26:00,29.3,20.7,30.76,NNW,346,4.0,6.0,70,0.00,,,0.00,meteobridge,2013-11-30 02:26:00,
2013-11-29 21:32:00,29.5,20.8,30.76,NNW,345,0.0,2.0,70,0.00,,,0.00,meteobridge,2013-11-30 02:32:00,
2013-11-29 21:37:00,29.5,20.8,30.76,NNW,345,0.9,2.9,70,0.00,,,0.00,meteobridge,2013-11-30 02:37:00,
2013-11-29 21:42:00,29.7,20.7,30.76,North,355,2.0,2.9,69,0.00,,,0.00,meteobridge,2013-11-30 02:42:00,
2013-11-29 21:47:00,29.5,20.7,30.76,North,355,0.0,0.9,69,0.00,,,0.00,meteobridge,2013-11-30 02:47:00,
2013-11-29 21:52:00,29.7,20.7,30.76,North,355,0.0,2.9,69,0.00,,,0.00,meteobridge,2013-11-30 02:52:00,
2013-11-29 21:57:00,29.7,20.5,30.77,North,355,0.9,2.0,68,0.00,,,0.00,meteobridge,2013-11-30 02:57:00,
2013-11-29 22:02:00,29.5,20.7,30.77,North,355,0.9,0.9,69,0.00,,,0.00,meteobridge,2013-11-30 03:02:00,
2013-11-29 22:07:00,29.5,20.7,30.76,NNE,15,2.0,6.9,69,0.00,,,0.00,meteobridge,2013-11-30 03:07:00,
2013-11-29 22:12:00,29.5,20.7,30.76,NNW,334,2.0,6.0,69,0.00,,,0.00,meteobridge,2013-11-30 03:12:00,
2013-11-29 22:17:00,29.7,20.5,30.76,NNW,346,0.0,4.0,68,0.00,,,0.00,meteobridge,2013-11-30 03:17:00,
2013-11-29 22:22:00,29.7,20.5,30.76,NNW,346,0.9,2.0,68,0.00,,,0.00,meteobridge,2013-11-30 03:22:00,
2013-11-29 22:27:00,29.7,20.1,30.77,NNE,19,4.9,4.9,67,0.00,,,0.00,meteobridge,2013-11-30 03:27:00,
2013-11-29 22:32:00,29.8,20.3,30.77,North,10,2.0,4.9,67,0.00,,,0.00,meteobridge,2013-11-30 03:32:00,
2013-11-29 22:37:00,30.0,20.1,30.77,North,5,2.9,4.0,66,0.00,,,0.00,meteobridge,2013-11-30 03:37:00,
2013-11-29 22:42:00,30.2,20.3,30.77,North,5,2.0,6.0,66,0.00,,,0.00,meteobridge,2013-11-30 03:42:00,
2013-11-29 22:47:00,30.2,20.3,30.77,North,5,0.0,2.0,66,0.00,,,0.00,meteobridge,2013-11-30 03:47:00,
2013-11-29 22:52:00,30.0,20.1,30.78,NNW,332,0.0,4.9,66,0.00,,,0.00,meteobridge,2013-11-30 03:52:00,
2013-11-29 22:58:00,30.0,20.5,30.78,NNW,332,0.9,2.0,67,0.00,,,0.00,meteobridge,2013-11-30 03:58:00,
2013-11-29 23:03:00,29.8,20.3,30.78,North,0,2.0,6.0,67,0.00,,,0.00,meteobridge,2013-11-30 04:03:00,
2013-11-29 23:08:00,29.8,20.3,30.78,North,0,0.0,0.0,67,0.00,,,0.00,meteobridge,2013-11-30 04:08:00,
2013-11-29 23:13:00,29.8,20.3,30.78,North,0,0.0,0.9,67,0.00,,,0.00,meteobridge,2013-11-30 04:13:00,
2013-11-29 23:18:00,29.7,20.5,30.78,North,0,0.0,2.9,68,0.00,,,0.00,meteobridge,2013-11-30 04:18:00,
2013-11-29 23:23:00,29.7,20.5,30.78,North,0,0.0,2.0,68,0.00,,,0.00,meteobridge,2013-11-30 04:23:00,
2013-11-29 23:28:00,29.5,20.3,30.78,North,0,0.0,2.0,68,0.00,,,0.00,meteobridge,2013-11-30 04:28:00,
2013-11-29 23:33:00,29.1,20.3,30.78,North,0,0.0,0.0,69,0.00,,,0.00,meteobridge,2013-11-30 04:33:00,
2013-11-29 23:39:00,29.1,20.3,30.78,North,0,2.0,2.9,69,0.00,,,0.00,meteobridge,2013-11-30 04:39:00,
2013-11-29 23:44:00,28.8,19.9,30.78,North,0,0.9,2.0,69,0.00,,,0.00,meteobridge,2013-11-30 04:44:00,
2013-11-29 23:49:00,28.8,19.9,30.78,North,0,0.0,2.0,69,0.00,,,0.00,meteobridge,2013-11-30 04:49:00,
2013-11-29 23:54:00,28.8,20.3,30.78,NNE,26,0.9,2.0,70,0.00,,,0.00,meteobridge,2013-11-30 04:54:00,
2013-11-29 23:59:00,28.6,19.8,30.78,NNE,23,0.9,4.0,69,0.00,,,0.00,meteobridge,2013-11-30 04:59:00,